Weather reports worldwide

Advertisment
Torino/Caselle, Italy (16059): temperature & dewpoint: 16.09.2018 23:00:00 - 22.09.2018 23:00:00 (CEST)Torino/Caselle, Italy (16059): wind speed: 16.09.2018 23:00:00 - 22.09.2018 23:00:00 (CEST)Torino/Caselle, Italy (16059): wind direction: 16.09.2018 23:00:00 - 22.09.2018 23:00:00 (CEST)Torino/Caselle, Italy (16059): reduced air pressure: 16.09.2018 23:00:00 - 22.09.2018 23:00:00 (CEST)Torino/Caselle, Italy (16059): visibility: 16.09.2018 23:00:00 - 22.09.2018 23:00:00 (CEST)Torino/Caselle, Italy (16059): precipitation: 16.09.2018 23:00:00 - 22.09.2018 23:00:00 (CEST)
Date & Time tt [°C] td [°C] ff [km/h] ff [kn] dd ppp [hPa] vv [km] rr [mm]
22.09.2018 23:00:00 21,6 17,6 5 3 WSW 1018,7 10 0,0
22.09.2018 22:00:00 22,0 17,0 4 2 - - 10 -
22.09.2018 21:00:00 24,0 17,0 9 5 NW - 10 -
22.09.2018 20:00:00 23,4 16,7 9 5 N 1017,4 10 -
22.09.2018 19:00:00 26,0 18,0 8 4 N - 10 -
22.09.2018 18:00:00 27,0 18,0 5 3 ENE - 10 -
22.09.2018 17:00:00 27,3 16,0 4 2 - 1016,2 10 0,0
22.09.2018 16:00:00 28,0 16,0 4 2 - - 10 -
22.09.2018 15:00:00 27,0 15,0 8 4 E - 10 -
22.09.2018 14:00:00 26,3 15,1 9 5 SE 1017,2 10 -
22.09.2018 13:00:00 26,0 15,0 4 2 - - 10 -
22.09.2018 12:00:00 24,0 17,0 5 3 E - 10 -
22.09.2018 11:00:00 23,5 16,6 2 1 - 1017,4 10 0,0
22.09.2018 10:00:00 21,0 16,0 2 1 - - 10 -
22.09.2018 09:00:00 19,0 16,0 8 4 NW - 10 -
22.09.2018 08:00:00 17,8 15,6 8 4 WNW 1016,1 8 -
22.09.2018 07:00:00 18,0 16,0 4 2 - - 8 -
22.09.2018 06:00:00 18,0 16,0 2 1 - - 8 -
22.09.2018 05:00:00 19,0 17,0 4 2 - 1015,0 8 0,0
22.09.2018 04:00:00 19,0 17,0 4 2 NNW - 7 -
22.09.2018 03:00:00 20,0 18,0 4 2 WNW - 6 -
22.09.2018 02:00:00 20,3 17,8 2 1 - 1015,2 8 -
22.09.2018 01:00:00 22,0 18,0 4 2 - - 8 -
22.09.2018 00:00:00 22,0 18,0 8 4 NW - 7 -
21.09.2018 23:00:00 22,0 17,9 2 1 - 1015,8 7 0,0
21.09.2018 22:00:00 22,0 18,0 5 3 NNW - 7 -
21.09.2018 21:00:00 23,0 18,0 8 4 N - 7 -
21.09.2018 20:00:00 24,0 18,2 9 5 N 1014,9 10 -
21.09.2018 19:00:00 25,0 19,0 5 3 NNE - 10 -
21.09.2018 18:00:00 26,0 18,0 8 4 NNE - 10 -
21.09.2018 17:00:00 26,2 18,1 5 3 NE 1015,2 10 0,0
21.09.2018 16:00:00 27,0 17,0 5 3 NNE - 10 -
21.09.2018 15:00:00 27,0 17,0 8 4 ESE - 10 -
21.09.2018 14:00:00 26,2 17,0 4 2 - 1016,8 10 -
21.09.2018 13:00:00 25,0 17,0 4 2 - - 10 -
21.09.2018 12:00:00 24,0 17,0 4 2 - - 10 -
21.09.2018 11:00:00 23,1 17,0 4 2 - 1018,0 10 0,0
21.09.2018 10:00:00 21,0 16,0 4 2 S - 10 -
21.09.2018 09:00:00 20,0 17,0 2 1 - - 10 -
21.09.2018 08:00:00 18,4 15,9 2 1 - 1017,9 10 -
21.09.2018 07:00:00 19,0 16,0 2 1 - - 10 -
21.09.2018 06:00:00 18,0 16,0 4 2 W - 10 -
21.09.2018 05:00:00 18,0 16,0 2 1 N 1018,0 - 0,0
21.09.2018 04:00:00 18,0 16,0 5 3 SW - 10 -
21.09.2018 03:00:00 - - - - - - - -
21.09.2018 02:00:00 18,7 16,8 4 2 SE 1018,9 10 -
21.09.2018 01:00:00 20,0 17,0 4 2 - - 10 -
21.09.2018 00:00:00 20,0 17,0 4 2 - - 10 -
20.09.2018 23:00:00 20,5 17,0 9 5 NNW 1019,0 10 0,0
20.09.2018 22:00:00 21,0 17,0 8 4 NNW - 10 -
20.09.2018 21:00:00 23,0 17,0 8 4 NW - 10 -
20.09.2018 20:00:00 24,7 16,6 8 4 N 1018,5 10 -
20.09.2018 19:00:00 26,0 18,0 5 3 NE - 10 -
20.09.2018 18:00:00 27,0 17,0 8 4 NE - 10 -
20.09.2018 17:00:00 27,3 18,2 5 3 ENE 1018,8 10 0,0
20.09.2018 16:00:00 28,0 16,0 4 2 - - 10 -
20.09.2018 15:00:00 27,0 16,0 5 3 - - 10 -
20.09.2018 14:00:00 26,2 17,3 5 3 - 1020,4 10 -
20.09.2018 13:00:00 25,0 17,0 4 2 - - 10 -
20.09.2018 12:00:00 24,0 17,0 4 2 - - 10 -
20.09.2018 11:00:00 22,8 16,7 5 3 SE 1021,8 10 0,0
20.09.2018 10:00:00 20,0 17,0 5 3 ESE - 10 -
20.09.2018 09:00:00 19,0 15,0 4 2 - - 10 -
20.09.2018 08:00:00 17,5 13,9 4 2 W 1021,6 10 -
20.09.2018 07:00:00 18,0 14,0 4 2 - - 10 -
20.09.2018 06:00:00 17,0 14,0 5 3 SE - 10 -
20.09.2018 05:00:00 19,3 13,0 5 3 NW 1021,1 10 0,0
20.09.2018 04:00:00 17,0 15,0 2 1 - - 10 -
20.09.2018 03:00:00 19,0 13,0 11 6 WNW - 10 -
20.09.2018 02:00:00 20,2 13,5 8 4 NW 1021,4 10 -
20.09.2018 01:00:00 20,0 14,0 9 5 NW - 10 -
20.09.2018 00:00:00 21,0 16,0 5 3 W - 10 -
19.09.2018 23:00:00 20,4 16,3 5 3 NNE 1021,2 10 0,0
19.09.2018 22:00:00 22,0 18,0 9 5 NNW - 10 -
19.09.2018 21:00:00 23,0 18,0 8 4 NNW - 10 -
19.09.2018 20:00:00 24,7 17,7 4 2 N 1019,9 10 -
19.09.2018 19:00:00 27,0 17,0 2 1 ENE - 10 -
19.09.2018 18:00:00 27,0 16,0 4 2 - - 10 -
19.09.2018 17:00:00 27,3 16,8 5 3 NNE 1019,5 10 0,0
19.09.2018 16:00:00 27,0 17,0 5 3 E - 10 -
19.09.2018 15:00:00 27,0 17,0 5 3 - - 10 -
19.09.2018 14:00:00 25,9 17,0 4 2 - 1020,7 10 -
19.09.2018 13:00:00 25,0 17,0 8 4 SE - 10 -
19.09.2018 12:00:00 24,0 17,0 5 3 ESE - 10 -
19.09.2018 11:00:00 22,2 16,9 5 3 ESE 1021,8 10 0,0
19.09.2018 10:00:00 20,0 17,0 4 2 - - 8 -
19.09.2018 09:00:00 18,0 16,0 4 2 - - 8 -
19.09.2018 08:00:00 17,1 16,0 8 4 WSW 1021,2 7 -
19.09.2018 07:00:00 18,0 18,0 5 3 WNW - 7 -
19.09.2018 06:00:00 17,0 17,0 5 3 WNW - 10 -
19.09.2018 05:00:00 17,0 16,9 4 2 - 1020,6 10 0,0
19.09.2018 04:00:00 18,0 17,0 5 3 SW - 8 -
19.09.2018 03:00:00 19,0 17,0 8 4 WNW - 8 -
19.09.2018 02:00:00 18,2 17,6 11 6 - 1021,6 4,0 -
19.09.2018 01:00:00 22,0 17,0 8 4 WNW - 10 -
19.09.2018 00:00:00 22,0 17,0 9 5 NW - 10 -
18.09.2018 23:00:00 21,4 17,4 8 4 NNW 1020,7 10 0,0
18.09.2018 22:00:00 20,0 18,0 11 6 N - 10 -
18.09.2018 21:00:00 22,0 18,0 8 4 N - 10 -
18.09.2018 20:00:00 22,4 17,9 8 4 N 1019,1 10 -
18.09.2018 19:00:00 25,0 18,0 5 3 NE - 10 -
18.09.2018 18:00:00 26,0 18,0 8 4 ENE - 10 -
18.09.2018 17:00:00 25,4 18,0 5 3 - 1019,2 10 0,0
18.09.2018 16:00:00 27,0 17,0 4 2 - - 10 -
18.09.2018 15:00:00 26,0 17,0 5 3 - - 10 -
18.09.2018 14:00:00 25,2 16,6 4 2 - 1020,6 10 -
18.09.2018 13:00:00 24,0 17,0 4 2 - - 10 -
18.09.2018 12:00:00 23,0 17,0 5 3 ESE - 10 -
18.09.2018 11:00:00 22,8 16,8 2 1 - 1021,9 10 0,0
18.09.2018 10:00:00 20,0 17,0 2 1 - - 10 -
18.09.2018 09:00:00 19,0 16,0 2 1 - - 10 -
18.09.2018 08:00:00 17,5 14,2 2 1 N 1021,2 15 -
18.09.2018 07:00:00 18,0 15,0 8 4 NW - 10 -
18.09.2018 06:00:00 18,0 15,0 5 3 W - 10 -
18.09.2018 05:00:00 16,6 15,0 5 3 WNW 1020,8 10 0,0
18.09.2018 04:00:00 17,0 16,0 4 2 - - 10 -
18.09.2018 03:00:00 17,0 16,0 4 2 - - 10 -
18.09.2018 02:00:00 18,1 15,8 5 3 NW 1021,0 10 -
18.09.2018 01:00:00 18,0 17,0 4 2 WNW - 10 -
18.09.2018 00:00:00 19,0 17,0 4 2 - - 10 -
17.09.2018 23:00:00 20,0 16,8 11 6 WNW 1021,2 10 0,0
17.09.2018 22:00:00 20,0 17,0 5 3 NNW - 10 -
17.09.2018 21:00:00 20,0 18,0 5 3 N - 10 -
17.09.2018 20:00:00 21,9 17,6 4 2 N 1020,3 10 -
17.09.2018 19:00:00 24,0 17,0 4 2 NNE - 10 -
17.09.2018 18:00:00 24,0 16,0 4 2 - - 10 -
17.09.2018 17:00:00 24,3 16,9 5 3 ESE 1020,3 10 0,0
17.09.2018 16:00:00 23,0 18,0 8 4 SSW - 10 -
17.09.2018 15:00:00 21,0 18,0 5 3 W - 10 -
17.09.2018 14:00:00 20,2 18,6 4 2 - 1023,4 10 -
17.09.2018 13:00:00 20,0 18,0 4 2 - - 10 -
17.09.2018 12:00:00 20,0 18,0 4 2 - - 10 -
17.09.2018 11:00:00 20,3 18,0 2 1 - 1023,7 10 0,0
17.09.2018 10:00:00 20,0 18,0 4 2 - - 10 -
17.09.2018 09:00:00 19,0 18,0 4 2 - - 10 -
17.09.2018 08:00:00 18,1 18,0 4 2 - 1022,6 8 -
17.09.2018 07:00:00 18,0 18,0 4 2 - - 6 -
17.09.2018 06:00:00 18,0 18,0 5 3 NNE - 8 -
17.09.2018 05:00:00 18,6 17,9 13 7 WNW 1022,7 8 0,0
17.09.2018 04:00:00 18,0 18,0 13 7 WNW - 10 -
17.09.2018 03:00:00 19,0 18,0 18 10 WSW - 10 -
17.09.2018 02:00:00 19,5 18,4 11 6 WNW 1022,8 10 -
17.09.2018 01:00:00 20,0 18,0 9 5 WSW - 10 -
17.09.2018 00:00:00 20,0 18,0 4 2 - - 10 -
16.09.2018 23:00:00 20,2 17,7 8 4 NNW 1023,1 10 0,0

tt = temperature
td = dewpoint
ff = wind speed
dd = wind direction
ppp = reduced air pressure
vv = visibility
rr = precipitation

Next stations